VK6YY Weather Reports


time (UTC)temp
F
wind
direction
speed
knots
gust
knots
rain 1hr
in
rain 24hr
in
rain mn
in
humidity
%
barometer
mb
20260503191523 55 98 0.9 4.3 0.00 0.00 0.00 77 1024.6
20260503190021 55 85 0.9 3.5 0.00 0.00 0.00 78 1024.5
20260503184533 54 69 0.9 4.3 0.00 0.00 0.00 79 1024.6
20260503183021 54 74 0.9 1.7 0.00 0.00 0.00 80 1024.6
20260503181518 54 62 0.0 1.7 0.00 0.00 0.00 80 1024.7
20260503180024 54 65 0.0 1.7 0.00 0.00 0.00 81 1024.6
20260503174518 54 62 0.0 1.7 0.00 0.00 0.00 81 1024.7
20260503173016 54 80 0.0 1.7 0.00 0.00 0.00 81 1024.6
20260503171512 54 71 0.0 1.7 0.00 0.00 0.00 81 1024.7
20260503081558 68 106 2.6 12.2 0.00 0.00 0.00 54 1022.4
20260503071527 68 121 4.3 9.6 0.00 0.00 0.00 56 1022.6
20260503070124 68 163 3.5 7.8 0.00 0.00 0.00 57 1022.5
20260503054510 66 119 1.7 7.8 0.00 0.00 0.00 60 1022.9
20260503053006 66 110 1.7 5.2 0.00 0.00 0.00 61 1023.0
20260503051504 65 133 4.3 8.7 0.00 0.00 0.00 63 1023.1
20260503050100 65 137 4.3 8.7 0.00 0.00 0.00 63 1023.3
20260503044605 65 134 3.5 8.7 0.00 0.00 0.00 63 1023.5
20260503043059 65 79 0.9 7.0 0.00 0.00 0.00 63 1023.7
20260503041606 64 52 0.9 8.7 0.00 0.00 0.00 65 1024.1
20260503040022 64 135 0.9 7.0 0.00 0.00 0.00 65 1024.3
20260503034534 63 131 5.2 9.6 0.00 0.00 0.00 66 1024.4
20260503033011 63 86 1.7 7.0 0.00 0.00 0.00 67 1024.6
20260503031510 62 88 4.3 9.6 0.00 0.00 0.00 67 1024.6
20260503030005 62 108 3.5 10.4 0.00 0.00 0.00 68 1024.8
20260503024504 63 131 1.7 8.7 0.00 0.00 0.00 68 1025.0
20260503023028 62 113 2.6 8.7 0.00 0.00 0.00 69 1025.0
20260503021524 62 66 0.9 6.1 0.00 0.00 0.00 70 1025.1
20260503020049 61 134 2.6 7.0 0.00 0.00 0.00 71 1025.1
20260503014549 60 124 2.6 7.0 0.00 0.00 0.00 71 1025.1
20260503013037 59 148 1.7 6.1 0.00 0.00 0.00 74 1025.1
20260503011534 58 125 2.6 8.7 0.00 0.00 0.00 76 1025.2
20260503010027 57 119 3.5 8.7 0.00 0.00 0.00 77 1025.1
20260503004523 56 144 2.6 6.1 0.00 0.00 0.00 80 1025.1
20260503003015 54 84 0.9 5.2 0.00 0.00 0.00 83 1025.0
20260503001511 52 123 0.9 3.5 0.00 0.00 0.00 86 1024.8
20260503000006 50 42 0.9 3.5 0.00 0.00 0.00 86 1024.8
20260502234503 50 71 0.0 3.5 0.00 0.00 0.00 86 1024.6
20260502233102 50 65 0.0 3.5 0.00 0.00 0.00 85 1024.5
20260502231605 50 67 0.0 1.7 0.00 0.00 0.00 85 1024.4
20260502230052 49 68 0.0 1.7 0.00 0.00 0.00 85 1024.1
20260502224551 49 68 0.0 3.5 0.00 0.00 0.00 85 1023.9
20260502223047 49 50 0.0 1.7 0.00 0.00 0.00 85 1023.7
20260502221546 50 58 0.0 3.5 0.00 0.00 0.00 84 1023.8
20260502220045 50 56 0.0 1.7 0.00 0.00 0.00 84 1023.6
20260502214542 50 61 0.0 0.9 0.00 0.00 0.00 84 1023.6
20260502213038 50 59 0.0 3.5 0.00 0.00 0.00 84 1023.6
20260502211545 50 78 0.0 3.5 0.00 0.00 0.00 83 1023.3
20260502210034 50 28 0.0 3.5 0.00 0.00 0.00 83 1023.3
20260502204533 51 42 0.0 1.7 0.00 0.00 0.00 83 1023.2
20260502203027 51 74 0.0 3.5 0.00 0.00 0.00 83 1023.2
20260502201527 51 60 0.0 3.5 0.00 0.00 0.00 83 1023.1
20260502200023 51 76 0.0 1.7 0.00 0.00 0.00 82 1023.2
20260502194522 51 78 0.0 1.7 0.00 0.00 0.00 82 1023.2
20260502193020 51 63 0.0 1.7 0.00 0.00 0.00 82 1023.2